Time,TemperatureF,DewpointF,PressureIn,WindDirection,WindDirectionDegrees,WindSpeedMPH,WindSpeedGustMPH,Humidity,HourlyPrecipIn,Conditions,Clouds,dailyrainin,SoftwareType,DateUTC
2013-03-02 00:01:00,62.4,29.8,30.17,NE,52,4.0,7.0,29,0.00,,---,0.00,VWS V14.01,2013-03-02 08:01:00,
2013-03-02 00:06:00,62.4,29.8,30.17,NE,53,1.0,7.0,29,0.00,,---,0.00,VWS V14.01,2013-03-02 08:06:00,
2013-03-02 00:11:00,62.3,29.7,30.17,NE,45,3.0,7.0,29,0.00,,---,0.00,VWS V14.01,2013-03-02 08:11:00,
2013-03-02 00:16:00,62.4,28.9,30.17,NE,46,3.0,4.0,28,0.00,,---,0.00,VWS V14.01,2013-03-02 08:16:00,
2013-03-02 00:21:00,62.5,29.0,30.17,NE,47,5.0,6.0,28,0.00,,---,0.00,VWS V14.01,2013-03-02 08:21:00,
2013-03-02 00:26:00,62.6,29.1,30.17,NE,56,5.0,7.0,28,0.00,,---,0.00,VWS V14.01,2013-03-02 08:26:00,
2013-03-02 00:31:00,62.6,29.1,30.17,NE,55,4.0,5.0,28,0.00,,---,0.00,VWS V14.01,2013-03-02 08:31:00,
2013-03-02 00:36:00,62.6,29.1,30.16,NE,46,5.0,7.0,28,0.00,,---,0.00,VWS V14.01,2013-03-02 08:36:00,
2013-03-02 00:41:00,62.5,29.8,30.15,NE,52,3.0,7.0,29,0.00,,---,0.00,VWS V14.01,2013-03-02 08:41:00,
2013-03-02 00:46:00,62.5,29.0,30.15,NE,51,0.0,5.0,28,0.00,,---,0.00,VWS V14.01,2013-03-02 08:46:00,
2013-03-02 00:51:00,62.6,29.1,30.16,NE,40,5.0,6.0,28,0.00,,---,0.00,VWS V14.01,2013-03-02 08:51:00,
2013-03-02 00:56:00,62.8,29.2,30.16,NE,45,6.0,7.0,28,0.00,,---,0.00,VWS V14.01,2013-03-02 08:56:00,
2013-03-02 01:01:00,62.8,29.2,30.16,NE,52,3.0,5.0,28,0.00,,---,0.00,VWS V14.01,2013-03-02 09:01:00,
2013-03-02 01:06:00,62.7,29.1,30.16,NE,50,2.0,7.0,28,0.00,,---,0.00,VWS V14.01,2013-03-02 09:06:00,
2013-03-02 01:11:00,62.5,29.0,30.16,NE,51,0.0,7.0,28,0.00,,---,0.00,VWS V14.01,2013-03-02 09:11:00,
2013-03-02 01:16:00,62.4,28.9,30.16,NE,51,0.0,3.0,28,0.00,,---,0.00,VWS V14.01,2013-03-02 09:16:00,
2013-03-02 01:21:00,62.3,28.8,30.16,NE,47,3.0,5.0,28,0.00,,---,0.00,VWS V14.01,2013-03-02 09:21:00,
2013-03-02 01:26:00,62.4,28.9,30.16,NE,44,3.0,6.0,28,0.00,,---,0.00,VWS V14.01,2013-03-02 09:26:00,
2013-03-02 01:31:00,62.7,29.1,30.16,NE,38,3.0,5.0,28,0.00,,---,0.00,VWS V14.01,2013-03-02 09:31:00,
2013-03-02 01:36:00,63.1,29.5,30.16,NE,48,2.0,7.0,28,0.00,,---,0.00,VWS V14.01,2013-03-02 09:36:00,
2013-03-02 01:41:00,63.3,28.8,30.16,NE,42,6.0,10.0,27,0.00,,---,0.00,VWS V14.01,2013-03-02 09:41:00,
2013-03-02 01:46:00,63.6,29.0,30.15,NE,36,4.0,6.0,27,0.00,,---,0.00,VWS V14.01,2013-03-02 09:46:00,
2013-03-02 01:51:00,63.9,29.3,30.15,NE,37,6.0,12.0,27,0.00,,---,0.00,VWS V14.01,2013-03-02 09:51:00,
2013-03-02 01:56:00,64.2,29.5,30.15,NE,34,4.0,12.0,27,0.00,,---,0.00,VWS V14.01,2013-03-02 09:56:00,
2013-03-02 02:01:00,64.5,29.8,30.15,NE,38,3.0,11.0,27,0.00,,---,0.00,VWS V14.01,2013-03-02 10:01:00,
2013-03-02 02:06:00,64.6,29.0,30.15,NE,55,6.0,11.0,26,0.00,,---,0.00,VWS V14.01,2013-03-02 10:06:00,
2013-03-02 02:11:00,64.7,30.0,30.15,NE,44,7.0,11.0,27,0.00,,---,0.00,VWS V14.01,2013-03-02 10:11:00,
2013-03-02 02:16:00,64.7,30.0,30.15,NE,52,4.0,7.0,27,0.00,,---,0.00,VWS V14.01,2013-03-02 10:16:00,
2013-03-02 02:21:00,64.5,29.8,30.15,NE,42,4.0,9.0,27,0.00,,---,0.00,VWS V14.01,2013-03-02 10:21:00,
2013-03-02 02:26:00,64.3,29.6,30.14,NE,49,3.0,9.0,27,0.00,,---,0.00,VWS V14.01,2013-03-02 10:26:00,
2013-03-02 02:31:00,64.1,29.5,30.14,NE,48,2.0,6.0,27,0.00,,---,0.00,VWS V14.01,2013-03-02 10:31:00,
2013-03-02 02:37:00,63.9,29.3,30.14,NE,50,0.0,6.0,27,0.00,,---,0.00,VWS V14.01,2013-03-02 10:37:00,
2013-03-02 02:42:00,63.6,29.9,30.14,NE,55,0.0,6.0,28,0.00,,---,0.00,VWS V14.01,2013-03-02 10:42:00,
2013-03-02 02:47:00,63.4,30.6,30.14,NE,55,2.0,4.0,29,0.00,,---,0.00,VWS V14.01,2013-03-02 10:47:00,
2013-03-02 02:52:00,63.0,30.3,30.14,ENE,59,3.0,5.0,29,0.00,,---,0.00,VWS V14.01,2013-03-02 10:52:00,
2013-03-02 02:57:00,62.7,30.0,30.14,NE,51,3.0,9.0,29,0.00,,---,0.00,VWS V14.01,2013-03-02 10:57:00,
2013-03-02 03:02:00,62.7,29.1,30.14,ENE,61,2.0,3.0,28,0.00,,---,0.00,VWS V14.01,2013-03-02 11:02:00,
2013-03-02 03:07:00,62.7,29.1,30.14,NE,54,4.0,9.0,28,0.00,,---,0.00,VWS V14.01,2013-03-02 11:07:00,
2013-03-02 03:12:00,62.8,29.2,30.14,NE,46,4.0,9.0,28,0.00,,---,0.00,VWS V14.01,2013-03-02 11:12:00,
2013-03-02 03:17:00,62.8,29.2,30.14,NE,51,4.0,8.0,28,0.00,,---,0.00,VWS V14.01,2013-03-02 11:17:00,
2013-03-02 03:22:00,62.8,29.2,30.14,NE,49,2.0,8.0,28,0.00,,---,0.00,VWS V14.01,2013-03-02 11:22:00,
2013-03-02 03:27:00,62.7,29.1,30.14,NE,47,2.0,8.0,28,0.00,,---,0.00,VWS V14.01,2013-03-02 11:27:00,
2013-03-02 03:32:00,62.6,29.1,30.14,NE,55,3.0,7.0,28,0.00,,---,0.00,VWS V14.01,2013-03-02 11:32:00,
2013-03-02 03:37:00,62.5,29.8,30.14,NE,56,2.0,7.0,29,0.00,,---,0.00,VWS V14.01,2013-03-02 11:37:00,
2013-03-02 03:42:00,62.2,29.6,30.14,ENE,67,4.0,7.0,29,0.00,,---,0.00,VWS V14.01,2013-03-02 11:42:00,
2013-03-02 03:47:00,62.1,29.5,30.14,ENE,76,5.0,5.0,29,0.00,,---,0.00,VWS V14.01,2013-03-02 11:47:00,
2013-03-02 03:52:00,62.2,29.6,30.13,NE,49,3.0,7.0,29,0.00,,---,0.00,VWS V14.01,2013-03-02 11:52:00,
2013-03-02 03:57:00,62.3,29.7,30.14,NE,55,3.0,7.0,29,0.00,,---,0.00,VWS V14.01,2013-03-02 11:57:00,
2013-03-02 04:02:00,62.4,28.9,30.14,NE,53,1.0,4.0,28,0.00,,---,0.00,VWS V14.01,2013-03-02 12:02:00,
2013-03-02 04:07:00,62.3,28.8,30.14,NE,53,3.0,4.0,28,0.00,,---,0.00,VWS V14.01,2013-03-02 12:07:00,
2013-03-02 04:12:00,62.3,29.7,30.14,NE,51,3.0,7.0,29,0.00,,---,0.00,VWS V14.01,2013-03-02 12:12:00,
2013-03-02 04:17:00,62.1,29.5,30.14,NE,45,1.0,5.0,29,0.00,,---,0.00,VWS V14.01,2013-03-02 12:17:00,
2013-03-02 04:22:00,61.9,30.1,30.14,NE,49,2.0,6.0,30,0.00,,---,0.00,VWS V14.01,2013-03-02 12:22:00,
2013-03-02 04:27:00,61.6,29.1,30.14,ENE,59,2.0,6.0,29,0.00,,---,0.00,VWS V14.01,2013-03-02 12:27:00,
2013-03-02 04:32:00,61.5,29.0,30.14,NE,36,4.0,7.0,29,0.00,,---,0.00,VWS V14.01,2013-03-02 12:32:00,
2013-03-02 04:37:00,61.5,29.8,30.14,NE,37,8.0,12.0,30,0.00,,---,0.00,VWS V14.01,2013-03-02 12:37:00,
2013-03-02 04:42:00,61.6,29.1,30.14,NE,56,2.0,12.0,29,0.00,,---,0.00,VWS V14.01,2013-03-02 12:42:00,
2013-03-02 04:47:00,61.6,29.9,30.14,NE,54,4.0,5.0,30,0.00,,---,0.00,VWS V14.01,2013-03-02 12:47:00,
2013-03-02 04:52:00,61.6,29.9,30.15,ENE,59,3.0,6.0,30,0.00,,---,0.00,VWS V14.01,2013-03-02 12:52:00,
2013-03-02 04:57:00,61.6,29.9,30.15,NE,46,1.0,7.0,30,0.00,,---,0.00,VWS V14.01,2013-03-02 12:57:00,
2013-03-02 05:02:00,61.5,29.8,30.15,NE,53,4.0,5.0,30,0.00,,---,0.00,VWS V14.01,2013-03-02 13:02:00,
2013-03-02 05:07:00,61.4,29.7,30.15,NE,49,2.0,7.0,30,0.00,,---,0.00,VWS V14.01,2013-03-02 13:07:00,
2013-03-02 05:12:00,61.3,29.6,30.15,NE,46,2.0,7.0,30,0.00,,---,0.00,VWS V14.01,2013-03-02 13:12:00,
2013-03-02 05:17:00,61.2,29.5,30.15,NE,53,3.0,6.0,30,0.00,,---,0.00,VWS V14.01,2013-03-02 13:17:00,
2013-03-02 05:22:00,61.1,29.5,30.15,NE,53,4.0,6.0,30,0.00,,---,0.00,VWS V14.01,2013-03-02 13:22:00,
2013-03-02 05:27:00,61.0,29.4,30.15,NE,51,4.0,7.0,30,0.00,,---,0.00,VWS V14.01,2013-03-02 13:27:00,
2013-03-02 05:32:00,61.0,29.4,30.15,NE,52,2.0,7.0,30,0.00,,---,0.00,VWS V14.01,2013-03-02 13:32:00,
2013-03-02 05:37:00,60.9,29.3,30.15,NE,52,5.0,7.0,30,0.00,,---,0.00,VWS V14.01,2013-03-02 13:37:00,
2013-03-02 05:42:00,60.8,29.2,30.15,NE,45,4.0,7.0,30,0.00,,---,0.00,VWS V14.01,2013-03-02 13:42:00,
2013-03-02 05:47:00,60.7,29.1,30.15,NE,47,3.0,6.0,30,0.00,,---,0.00,VWS V14.01,2013-03-02 13:47:00,
2013-03-02 05:52:00,60.6,29.0,30.15,NE,47,3.0,6.0,30,0.00,,---,0.00,VWS V14.01,2013-03-02 13:52:00,
2013-03-02 05:57:00,60.5,28.9,30.15,NE,52,3.0,6.0,30,0.00,,---,0.00,VWS V14.01,2013-03-02 13:57:00,
2013-03-02 06:02:00,60.4,28.9,30.16,NE,51,4.0,5.0,30,0.00,,---,0.00,VWS V14.01,2013-03-02 14:02:00,
2013-03-02 06:07:00,60.5,28.9,30.16,NE,48,1.0,5.0,30,0.00,,---,0.00,VWS V14.01,2013-03-02 14:07:00,
2013-03-02 06:12:00,60.5,28.9,30.16,NE,46,6.0,10.0,30,0.00,,---,0.00,VWS V14.01,2013-03-02 14:12:00,
2013-03-02 06:17:00,60.6,29.0,30.16,NE,47,6.0,7.0,30,0.00,,---,0.00,VWS V14.01,2013-03-02 14:17:00,
2013-03-02 06:22:00,60.7,29.1,30.16,NE,49,4.0,8.0,30,0.00,,---,0.00,VWS V14.01,2013-03-02 14:22:00,
2013-03-02 06:27:00,60.6,29.0,30.16,NE,46,8.0,11.0,30,0.00,,---,0.00,VWS V14.01,2013-03-02 14:27:00,
2013-03-02 06:32:00,60.7,28.3,30.16,NE,48,3.0,7.0,29,0.00,,---,0.00,VWS V14.01,2013-03-02 14:32:00,
2013-03-02 06:37:00,60.8,29.2,30.16,NE,55,2.0,7.0,30,0.00,,---,0.00,VWS V14.01,2013-03-02 14:37:00,
2013-03-02 06:42:00,60.8,29.2,30.17,NE,38,2.0,10.0,30,0.00,,---,0.00,VWS V14.01,2013-03-02 14:42:00,
2013-03-02 06:47:00,60.9,28.5,30.17,NE,50,4.0,7.0,29,0.00,,---,0.00,VWS V14.01,2013-03-02 14:47:00,
2013-03-02 06:52:00,60.9,29.3,30.17,ENE,57,4.0,8.0,30,0.00,,---,0.00,VWS V14.01,2013-03-02 14:52:00,
2013-03-02 06:57:00,61.1,28.6,30.17,ENE,57,4.0,8.0,29,0.00,,---,0.00,VWS V14.01,2013-03-02 14:57:00,
2013-03-02 07:02:00,61.3,28.8,30.17,NE,51,5.0,6.0,29,0.00,,---,0.00,VWS V14.01,2013-03-02 15:02:00,
2013-03-02 07:07:00,61.7,29.1,30.17,NE,55,4.0,7.0,29,0.00,,---,0.00,VWS V14.01,2013-03-02 15:07:00,
2013-03-02 07:12:00,62.1,30.3,30.17,ENE,58,5.0,9.0,30,0.00,,---,0.00,VWS V14.01,2013-03-02 15:12:00,
2013-03-02 07:17:00,62.4,30.6,30.18,NE,46,2.0,9.0,30,0.00,,---,0.00,VWS V14.01,2013-03-02 15:17:00,
2013-03-02 07:22:00,62.7,30.8,30.18,NE,51,4.0,9.0,30,0.00,,---,0.00,VWS V14.01,2013-03-02 15:22:00,
2013-03-02 07:27:00,63.1,30.4,30.18,ENE,60,4.0,9.0,29,0.00,,---,0.00,VWS V14.01,2013-03-02 15:27:00,
2013-03-02 07:32:00,63.4,31.5,30.18,NE,49,6.0,6.0,30,0.00,,---,0.00,VWS V14.01,2013-03-02 15:32:00,
2013-03-02 07:37:00,64.0,31.1,30.17,NE,53,1.0,9.0,29,0.00,,---,0.00,VWS V14.01,2013-03-02 15:37:00,
2013-03-02 07:42:00,64.8,31.8,30.17,NE,45,4.0,9.0,29,0.00,,---,0.00,VWS V14.01,2013-03-02 15:42:00,
2013-03-02 07:47:00,65.9,32.8,30.17,NE,51,6.0,6.0,29,0.00,,---,0.00,VWS V14.01,2013-03-02 15:47:00,
2013-03-02 07:52:00,67.0,32.8,30.17,NE,46,4.0,6.0,28,0.00,,---,0.00,VWS V14.01,2013-03-02 15:52:00,
2013-03-02 07:57:00,68.1,32.9,30.17,NE,48,2.0,6.0,27,0.00,,---,0.00,VWS V14.01,2013-03-02 15:57:00,
2013-03-02 08:02:00,69.4,34.9,30.17,NE,46,0.0,4.0,28,0.00,,---,0.00,VWS V14.01,2013-03-02 16:02:00,
2013-03-02 08:07:00,70.6,35.9,30.17,NE,46,1.0,4.0,28,0.00,,---,0.00,VWS V14.01,2013-03-02 16:07:00,
2013-03-02 08:12:00,71.7,36.0,30.17,NE,47,1.0,4.0,27,0.00,,---,0.00,VWS V14.01,2013-03-02 16:12:00,
2013-03-02 08:17:00,73.0,36.1,30.17,NE,47,0.0,1.0,26,0.00,,---,0.00,VWS V14.01,2013-03-02 16:17:00,
2013-03-02 08:22:00,74.0,36.0,30.17,NE,46,0.0,3.0,25,0.00,,---,0.00,VWS V14.01,2013-03-02 16:22:00,
2013-03-02 08:27:00,75.0,36.8,30.17,NE,47,0.0,3.0,25,0.00,,---,0.00,VWS V14.01,2013-03-02 16:27:00,
2013-03-02 08:32:00,76.0,35.6,30.17,NE,47,0.0,0.0,23,0.00,,---,0.00,VWS V14.01,2013-03-02 16:32:00,
2013-03-02 08:37:00,77.2,35.5,30.17,NE,46,0.0,0.0,22,0.00,,---,0.00,VWS V14.01,2013-03-02 16:37:00,
2013-03-02 08:42:00,78.4,38.7,30.16,NE,47,0.0,0.0,24,0.00,,---,0.00,VWS V14.01,2013-03-02 16:42:00,
2013-03-02 08:47:00,79.8,38.8,30.16,NE,47,0.0,0.0,23,0.00,,---,0.00,VWS V14.01,2013-03-02 16:47:00,
2013-03-02 08:52:00,80.8,39.6,30.16,NE,47,0.0,0.0,23,0.00,,---,0.00,VWS V14.01,2013-03-02 16:52:00,
2013-03-02 08:57:00,81.4,38.9,30.16,NE,47,0.0,0.0,22,0.00,,---,0.00,VWS V14.01,2013-03-02 16:57:00,
2013-03-02 09:02:00,81.6,39.1,30.16,NE,47,0.0,0.0,22,0.00,,---,0.00,VWS V14.01,2013-03-02 17:02:00,
2013-03-02 09:07:00,81.5,36.6,30.15,NE,47,0.0,2.0,20,0.00,,---,0.00,VWS V14.01,2013-03-02 17:07:00,
2013-03-02 09:12:00,81.2,37.6,30.15,NE,47,0.0,2.0,21,0.00,,---,0.00,VWS V14.01,2013-03-02 17:12:00,
2013-03-02 09:17:00,80.9,34.8,30.15,NE,41,3.0,3.0,19,0.00,,---,0.00,VWS V14.01,2013-03-02 17:17:00,
2013-03-02 09:22:00,80.5,38.2,30.15,WSW,251,0.0,4.0,22,0.00,,---,0.00,VWS V14.01,2013-03-02 17:22:00,
2013-03-02 09:27:00,80.7,35.9,30.15,WSW,252,0.0,4.0,20,0.00,,---,0.00,VWS V14.01,2013-03-02 17:27:00,
2013-03-02 09:32:00,81.1,35.0,30.15,WSW,254,2.0,3.0,19,0.00,,---,0.00,VWS V14.01,2013-03-02 17:32:00,
2013-03-02 09:37:00,81.1,36.3,30.15,WSW,246,0.0,3.0,20,0.00,,---,0.00,VWS V14.01,2013-03-02 17:37:00,
2013-03-02 09:42:00,81.1,38.7,30.15,WSW,253,0.0,6.0,22,0.00,,---,0.00,VWS V14.01,2013-03-02 17:42:00,
2013-03-02 09:47:00,81.1,39.8,30.15,WSW,238,0.0,5.0,23,0.00,,---,0.00,VWS V14.01,2013-03-02 17:47:00,
2013-03-02 09:52:00,81.0,39.8,30.15,SW,230,2.0,5.0,23,0.00,,---,0.00,VWS V14.01,2013-03-02 17:52:00,
2013-03-02 09:57:00,80.8,40.7,30.15,WSW,244,1.0,5.0,24,0.00,,---,0.00,VWS V14.01,2013-03-02 17:57:00,
2013-03-02 10:02:00,80.9,42.8,30.15,SW,234,4.0,7.0,26,0.00,,---,0.00,VWS V14.01,2013-03-02 18:02:00,
2013-03-02 10:07:00,80.8,40.7,30.15,SW,236,5.0,7.0,24,0.00,,---,0.00,VWS V14.01,2013-03-02 18:07:00,
2013-03-02 10:12:00,80.5,39.3,30.15,SW,229,0.0,7.0,23,0.00,,---,0.00,VWS V14.01,2013-03-02 18:12:00,
2013-03-02 10:17:00,80.2,40.2,30.16,WSW,248,2.0,5.0,24,0.00,,---,0.00,VWS V14.01,2013-03-02 18:17:00,
2013-03-02 10:22:00,80.0,40.0,30.16,WSW,245,2.0,6.0,24,0.00,,---,0.00,VWS V14.01,2013-03-02 18:22:00,
2013-03-02 10:27:00,80.0,40.0,30.16,West,264,2.0,7.0,24,0.00,,---,0.00,VWS V14.01,2013-03-02 18:27:00,
2013-03-02 10:32:00,80.2,41.2,30.16,West,265,5.0,5.0,25,0.00,,---,0.00,VWS V14.01,2013-03-02 18:32:00,
2013-03-02 10:37:00,80.2,41.2,30.16,WSW,244,3.0,7.0,25,0.00,,---,0.00,VWS V14.01,2013-03-02 18:37:00,
2013-03-02 10:42:00,80.2,38.0,30.16,West,261,2.0,7.0,22,0.00,,---,0.00,VWS V14.01,2013-03-02 18:42:00,
2013-03-02 10:47:00,80.4,40.3,30.16,West,277,3.0,6.0,24,0.00,,---,0.00,VWS V14.01,2013-03-02 18:47:00,
2013-03-02 10:52:00,80.6,37.1,30.16,West,268,5.0,8.0,21,0.00,,---,0.00,VWS V14.01,2013-03-02 18:52:00,
2013-03-02 10:57:00,80.7,35.9,30.16,West,268,7.0,8.0,20,0.00,,---,0.00,VWS V14.01,2013-03-02 18:57:00,
2013-03-02 11:02:00,80.7,38.4,30.15,WSW,246,1.0,3.0,22,0.00,,---,0.00,VWS V14.01,2013-03-02 19:02:00,
2013-03-02 11:07:00,80.9,38.5,30.16,NW,306,4.0,5.0,22,0.00,,---,0.00,VWS V14.01,2013-03-02 19:07:00,
2013-03-02 11:12:00,80.9,38.5,30.15,WSW,256,2.0,5.0,22,0.00,,---,0.00,VWS V14.01,2013-03-02 19:12:00,
2013-03-02 11:17:00,80.8,36.0,30.15,NW,310,0.0,6.0,20,0.00,,---,0.00,VWS V14.01,2013-03-02 19:17:00,
2013-03-02 11:22:00,80.3,35.6,30.15,West,281,3.0,6.0,20,0.00,,---,0.00,VWS V14.01,2013-03-02 19:22:00,
2013-03-02 11:27:00,80.3,35.6,30.15,West,274,1.0,6.0,20,0.00,,---,0.00,VWS V14.01,2013-03-02 19:27:00,
2013-03-02 11:32:00,80.9,39.7,30.15,WSW,241,0.0,3.0,23,0.00,,---,0.00,VWS V14.01,2013-03-02 19:32:00,
2013-03-02 11:37:00,82.0,38.2,30.14,West,275,1.0,6.0,21,0.00,,---,0.00,VWS V14.01,2013-03-02 19:37:00,
2013-03-02 11:42:00,82.1,37.1,30.14,WNW,300,1.0,6.0,20,0.00,,---,0.00,VWS V14.01,2013-03-02 19:42:00,
2013-03-02 11:47:00,82.0,35.7,30.14,West,281,0.0,3.0,19,0.00,,---,0.00,VWS V14.01,2013-03-02 19:47:00,
2013-03-02 11:52:00,81.9,40.5,30.14,SW,225,9.0,9.0,23,0.00,,---,0.00,VWS V14.01,2013-03-02 19:52:00,
2013-03-02 11:57:00,81.9,38.2,30.14,SW,232,3.0,9.0,21,0.00,,---,0.00,VWS V14.01,2013-03-02 19:57:00,
2013-03-02 12:02:00,82.4,43.1,30.13,WSW,238,3.0,6.0,25,0.00,,---,0.00,VWS V14.01,2013-03-02 20:02:00,
2013-03-02 12:07:00,82.9,43.5,30.12,SW,225,1.0,6.0,25,0.00,,---,0.00,VWS V14.01,2013-03-02 20:07:00,
2013-03-02 12:12:00,83.0,41.4,30.12,West,281,0.0,6.0,23,0.00,,---,0.00,VWS V14.01,2013-03-02 20:12:00,
2013-03-02 12:17:00,82.9,42.4,30.12,SW,232,4.0,6.0,24,0.00,,---,0.00,VWS V14.01,2013-03-02 20:17:00,
2013-03-02 12:22:00,83.1,40.4,30.12,SSW,205,5.0,7.0,22,0.00,,---,0.00,VWS V14.01,2013-03-02 20:22:00,
2013-03-02 12:28:00,83.5,41.8,30.12,SW,218,2.0,7.0,23,0.00,,---,0.00,VWS V14.01,2013-03-02 20:28:00,
2013-03-02 12:33:00,83.3,38.1,30.11,SSW,192,0.0,4.0,20,0.00,,---,0.00,VWS V14.01,2013-03-02 20:33:00,
2013-03-02 12:38:00,83.1,41.5,30.11,SSW,211,0.0,7.0,23,0.00,,---,0.00,VWS V14.01,2013-03-02 20:38:00,
2013-03-02 12:43:00,83.5,43.0,30.11,WSW,237,5.0,7.0,24,0.00,,---,0.00,VWS V14.01,2013-03-02 20:43:00,
2013-03-02 12:48:00,83.6,41.9,30.10,SSW,202,3.0,7.0,23,0.00,,---,0.00,VWS V14.01,2013-03-02 20:48:00,
2013-03-02 12:53:00,83.4,40.6,30.10,West,267,5.0,11.0,22,0.00,,---,0.00,VWS V14.01,2013-03-02 20:53:00,
2013-03-02 12:57:00,83.2,40.4,30.10,WSW,258,0.0,11.0,22,0.00,,---,0.00,VWS V14.01,2013-03-02 20:57:00,
2013-03-02 13:03:00,83.4,42.9,30.10,West,260,3.0,5.0,24,0.00,,---,0.00,VWS V14.01,2013-03-02 21:03:00,
2013-03-02 13:08:00,83.7,40.9,30.09,SSW,206,0.0,8.0,22,0.00,,---,0.00,VWS V14.01,2013-03-02 21:08:00,
2013-03-02 13:13:00,84.2,40.1,30.09,SSW,205,0.0,8.0,21,0.00,,---,0.00,VWS V14.01,2013-03-02 21:13:00,
2013-03-02 13:18:00,84.4,42.6,30.09,West,263,7.0,8.0,23,0.00,,---,0.00,VWS V14.01,2013-03-02 21:18:00,
2013-03-02 13:23:00,84.5,40.3,30.08,SSE,163,0.0,8.0,21,0.00,,---,0.00,VWS V14.01,2013-03-02 21:23:00,
2013-03-02 13:28:00,84.2,40.1,30.08,West,268,0.0,8.0,21,0.00,,---,0.00,VWS V14.01,2013-03-02 21:28:00,
2013-03-02 13:33:00,84.3,42.5,30.08,WSW,237,4.0,6.0,23,0.00,,---,0.00,VWS V14.01,2013-03-02 21:33:00,
2013-03-02 13:38:00,83.7,39.7,30.08,West,265,7.0,7.0,21,0.00,,---,0.00,VWS V14.01,2013-03-02 21:38:00,
2013-03-02 13:43:00,82.5,36.1,30.08,WNW,284,2.0,7.0,19,0.00,,---,0.00,VWS V14.01,2013-03-02 21:43:00,
2013-03-02 13:48:00,81.8,39.3,30.08,WSW,250,4.0,6.0,22,0.00,,---,0.00,VWS V14.01,2013-03-02 21:48:00,
2013-03-02 13:53:00,82.0,40.6,30.08,WSW,249,1.0,6.0,23,0.00,,---,0.00,VWS V14.01,2013-03-02 21:53:00,
2013-03-02 13:58:00,81.8,39.3,30.08,West,260,4.0,9.0,22,0.00,,---,0.00,VWS V14.01,2013-03-02 21:58:00,
2013-03-02 14:03:00,81.4,38.9,30.08,SW,233,4.0,8.0,22,0.00,,---,0.00,VWS V14.01,2013-03-02 22:03:00,
2013-03-02 14:08:00,81.4,40.1,30.08,West,259,2.0,8.0,23,0.00,,---,0.00,VWS V14.01,2013-03-02 22:08:00,
2013-03-02 14:13:00,81.2,38.8,30.08,West,259,4.0,8.0,22,0.00,,---,0.00,VWS V14.01,2013-03-02 22:13:00,
2013-03-02 14:18:00,81.3,38.9,30.07,NW,304,6.0,6.0,22,0.00,,---,0.00,VWS V14.01,2013-03-02 22:18:00,
2013-03-02 14:23:00,81.4,37.8,30.07,West,276,3.0,6.0,21,0.00,,---,0.00,VWS V14.01,2013-03-02 22:23:00,
2013-03-02 14:28:00,81.3,37.7,30.07,WSW,242,3.0,7.0,21,0.00,,---,0.00,VWS V14.01,2013-03-02 22:28:00,
2013-03-02 14:33:00,81.1,40.9,30.07,WSW,238,0.0,1.0,24,0.00,,---,0.00,VWS V14.01,2013-03-02 22:33:00,
2013-03-02 14:38:00,81.1,36.3,30.07,WNW,290,0.0,5.0,20,0.00,,---,0.00,VWS V14.01,2013-03-02 22:38:00,
2013-03-02 14:43:00,80.8,39.6,30.06,West,259,5.0,7.0,23,0.00,,---,0.00,VWS V14.01,2013-03-02 22:43:00,
2013-03-02 14:48:00,80.9,37.3,30.06,WSW,246,1.0,3.0,21,0.00,,---,0.00,VWS V14.01,2013-03-02 22:48:00,
2013-03-02 14:53:00,80.9,37.3,30.06,West,275,1.0,6.0,21,0.00,,---,0.00,VWS V14.01,2013-03-02 22:53:00,
2013-03-02 14:58:00,80.5,37.0,30.06,West,265,3.0,6.0,21,0.00,,---,0.00,VWS V14.01,2013-03-02 22:58:00,
2013-03-02 15:03:00,79.9,38.8,30.06,WNW,290,5.0,6.0,23,0.00,,---,0.00,VWS V14.01,2013-03-02 23:03:00,
2013-03-02 15:08:00,79.2,38.2,30.07,West,264,6.0,10.0,23,0.00,,---,0.00,VWS V14.01,2013-03-02 23:08:00,
2013-03-02 15:13:00,78.6,36.6,30.06,West,277,4.0,10.0,22,0.00,,---,0.00,VWS V14.01,2013-03-02 23:13:00,
2013-03-02 15:18:00,78.1,37.3,30.06,WSW,237,5.0,7.0,23,0.00,,---,0.00,VWS V14.01,2013-03-02 23:18:00,
2013-03-02 15:23:00,77.6,36.9,30.07,WSW,242,5.0,10.0,23,0.00,,---,0.00,VWS V14.01,2013-03-02 23:23:00,
2013-03-02 15:28:00,77.1,35.4,30.07,NNW,338,1.0,10.0,22,0.00,,---,0.00,VWS V14.01,2013-03-02 23:28:00,
2013-03-02 15:33:00,76.9,35.2,30.07,West,271,5.0,7.0,22,0.00,,---,0.00,VWS V14.01,2013-03-02 23:33:00,
2013-03-02 15:38:00,76.6,36.1,30.07,WNW,289,1.0,7.0,23,0.00,,---,0.00,VWS V14.01,2013-03-02 23:38:00,
2013-03-02 15:43:00,76.6,35.0,30.07,NW,312,2.0,9.0,22,0.00,,---,0.00,VWS V14.01,2013-03-02 23:43:00,
2013-03-02 15:48:00,76.8,38.3,30.06,WSW,258,1.0,5.0,25,0.00,,---,0.00,VWS V14.01,2013-03-02 23:48:00,
2013-03-02 15:53:00,77.3,35.5,30.06,WSW,252,6.0,6.0,22,0.00,,---,0.00,VWS V14.01,2013-03-02 23:53:00,
2013-03-02 15:58:00,77.5,38.9,30.06,West,260,1.0,6.0,25,0.00,,---,0.00,VWS V14.01,2013-03-02 23:58:00,
2013-03-02 16:03:00,77.0,32.9,30.06,NW,317,5.0,7.0,20,0.00,,---,0.00,VWS V14.01,2013-03-03 00:03:00,
2013-03-02 16:08:00,76.1,33.4,30.06,WSW,256,4.0,7.0,21,0.00,,---,0.00,VWS V14.01,2013-03-03 00:08:00,
2013-03-02 16:13:00,75.3,32.7,30.07,WNW,288,3.0,7.0,21,0.00,,---,0.00,VWS V14.01,2013-03-03 00:13:00,
2013-03-02 16:18:00,75.1,34.8,30.07,West,279,1.0,6.0,23,0.00,,---,0.00,VWS V14.01,2013-03-03 00:18:00,
2013-03-02 16:23:00,75.2,34.9,30.07,West,265,4.0,6.0,23,0.00,,---,0.00,VWS V14.01,2013-03-03 00:23:00,
2013-03-02 16:28:00,75.4,32.8,30.07,WNW,295,2.0,6.0,21,0.00,,---,0.00,VWS V14.01,2013-03-03 00:28:00,
2013-03-02 16:33:00,75.3,37.1,30.07,WNW,288,0.0,4.0,25,0.00,,---,0.00,VWS V14.01,2013-03-03 00:33:00,
2013-03-02 16:38:00,75.3,32.7,30.07,NW,306,0.0,5.0,21,0.00,,---,0.00,VWS V14.01,2013-03-03 00:38:00,
2013-03-02 16:43:00,75.1,33.7,30.06,WNW,292,3.0,5.0,22,0.00,,---,0.00,VWS V14.01,2013-03-03 00:43:00,
2013-03-02 16:48:00,74.9,33.5,30.06,WNW,297,1.0,5.0,22,0.00,,---,0.00,VWS V14.01,2013-03-03 00:48:00,
2013-03-02 16:53:00,74.8,35.6,30.06,WSW,248,3.0,5.0,24,0.00,,---,0.00,VWS V14.01,2013-03-03 00:53:00,
2013-03-02 16:58:00,74.6,34.4,30.06,West,264,0.0,5.0,23,0.00,,---,0.00,VWS V14.01,2013-03-03 00:58:00,
2013-03-02 17:03:00,74.4,36.3,30.06,West,269,0.0,0.0,25,0.00,,---,0.00,VWS V14.01,2013-03-03 01:03:00,
2013-03-02 17:08:00,74.2,36.2,30.06,WNW,297,1.0,3.0,25,0.00,,---,0.00,VWS V14.01,2013-03-03 01:08:00,
2013-03-02 17:13:00,73.9,35.9,30.06,West,275,0.0,3.0,25,0.00,,---,0.00,VWS V14.01,2013-03-03 01:13:00,
2013-03-02 17:18:00,73.5,34.5,30.06,West,277,0.0,2.0,24,0.00,,---,0.00,VWS V14.01,2013-03-03 01:18:00,
2013-03-02 17:23:00,73.3,36.4,30.06,West,277,0.0,2.0,26,0.00,,---,0.00,VWS V14.01,2013-03-03 01:23:00,
2013-03-02 17:28:00,73.0,37.1,30.06,West,277,0.0,2.0,27,0.00,,---,0.00,VWS V14.01,2013-03-03 01:28:00,
2013-03-02 17:33:00,72.6,35.8,30.06,West,276,0.0,0.0,26,0.00,,---,0.00,VWS V14.01,2013-03-03 01:33:00,
2013-03-02 17:38:00,72.2,36.4,30.06,West,277,0.0,1.0,27,0.00,,---,0.00,VWS V14.01,2013-03-03 01:38:00,
2013-03-02 17:43:00,71.8,36.0,30.06,West,277,0.0,1.0,27,0.00,,---,0.00,VWS V14.01,2013-03-03 01:43:00,
2013-03-02 17:48:00,71.3,35.6,30.06,West,277,0.0,0.0,27,0.00,,---,0.00,VWS V14.01,2013-03-03 01:48:00,
2013-03-02 17:53:00,71.0,36.3,30.07,West,277,0.0,0.0,28,0.00,,---,0.00,VWS V14.01,2013-03-03 01:53:00,
2013-03-02 17:58:00,70.6,35.9,30.07,West,280,0.0,0.0,28,0.00,,---,0.00,VWS V14.01,2013-03-03 01:58:00,
2013-03-02 18:03:00,70.2,35.6,30.07,NNE,29,1.0,2.0,28,0.00,,---,0.00,VWS V14.01,2013-03-03 02:03:00,
2013-03-02 18:08:00,69.8,36.1,30.07,NNE,31,4.0,4.0,29,0.00,,---,0.00,VWS V14.01,2013-03-03 02:08:00,
2013-03-02 18:13:00,69.4,35.8,30.08,NNE,32,0.0,4.0,29,0.00,,---,0.00,VWS V14.01,2013-03-03 02:13:00,
2013-03-02 18:18:00,68.9,35.4,30.08,North,11,0.0,4.0,29,0.00,,---,0.00,VWS V14.01,2013-03-03 02:18:00,
2013-03-02 18:23:00,68.6,36.0,30.08,NNE,13,0.0,4.0,30,0.00,,---,0.00,VWS V14.01,2013-03-03 02:23:00,
2013-03-02 18:28:00,68.2,34.8,30.08,NNE,13,2.0,4.0,29,0.00,,---,0.00,VWS V14.01,2013-03-03 02:28:00,
2013-03-02 18:33:00,67.8,35.3,30.09,NNE,13,0.0,3.0,30,0.00,,---,0.00,VWS V14.01,2013-03-03 02:33:00,
2013-03-02 18:38:00,67.4,34.9,30.09,NNE,13,0.0,3.0,30,0.00,,---,0.00,VWS V14.01,2013-03-03 02:38:00,
2013-03-02 18:43:00,67.0,34.6,30.09,NNE,13,0.0,3.0,30,0.00,,---,0.00,VWS V14.01,2013-03-03 02:43:00,
2013-03-02 18:48:00,66.5,35.0,30.09,NNE,20,1.0,3.0,31,0.00,,---,0.00,VWS V14.01,2013-03-03 02:48:00,
2013-03-02 18:53:00,66.1,35.4,30.09,NE,40,0.0,4.0,32,0.00,,---,0.00,VWS V14.01,2013-03-03 02:53:00,
2013-03-02 18:58:00,65.6,35.0,30.09,NE,40,0.0,4.0,32,0.00,,---,0.00,VWS V14.01,2013-03-03 02:58:00,
2013-03-02 19:03:00,65.2,34.6,30.08,NE,40,3.0,4.0,32,0.00,,---,0.00,VWS V14.01,2013-03-03 03:03:00,
2013-03-02 19:08:00,64.8,35.0,30.08,NE,54,3.0,5.0,33,0.00,,---,0.00,VWS V14.01,2013-03-03 03:08:00,
2013-03-02 19:13:00,64.4,34.7,30.08,NE,48,0.0,5.0,33,0.00,,---,0.00,VWS V14.01,2013-03-03 03:13:00,
2013-03-02 19:18:00,64.0,34.3,30.09,NE,49,2.0,5.0,33,0.00,,---,0.00,VWS V14.01,2013-03-03 03:18:00,
2013-03-02 19:23:00,63.6,34.0,30.08,NE,50,4.0,5.0,33,0.00,,---,0.00,VWS V14.01,2013-03-03 03:23:00,
2013-03-02 19:28:00,63.3,33.7,30.08,NE,50,3.0,5.0,33,0.00,,---,0.00,VWS V14.01,2013-03-03 03:28:00,
2013-03-02 19:33:00,63.0,33.5,30.08,NE,53,4.0,5.0,33,0.00,,---,0.00,VWS V14.01,2013-03-03 03:33:00,
2013-03-02 19:38:00,62.7,34.0,30.09,NE,53,4.0,6.0,34,0.00,,---,0.00,VWS V14.01,2013-03-03 03:38:00,
2013-03-02 19:43:00,62.5,33.8,30.08,NE,53,4.0,6.0,34,0.00,,---,0.00,VWS V14.01,2013-03-03 03:43:00,
2013-03-02 19:48:00,62.2,33.5,30.09,NE,53,2.0,7.0,34,0.00,,---,0.00,VWS V14.01,2013-03-03 03:48:00,
2013-03-02 19:53:00,62.1,33.4,30.09,NE,51,3.0,7.0,34,0.00,,---,0.00,VWS V14.01,2013-03-03 03:53:00,
2013-03-02 19:58:00,61.9,33.2,30.09,NE,53,5.0,7.0,34,0.00,,---,0.00,VWS V14.01,2013-03-03 03:58:00,
2013-03-02 20:03:00,61.8,32.4,30.07,NE,51,3.0,6.0,33,0.00,,---,0.00,VWS V14.01,2013-03-03 04:03:00,
2013-03-02 20:08:00,61.7,32.3,30.07,NE,51,2.0,6.0,33,0.00,,---,0.00,VWS V14.01,2013-03-03 04:08:00,
2013-03-02 20:13:00,61.7,32.3,30.08,NE,51,5.0,8.0,33,0.00,,---,0.00,VWS V14.01,2013-03-03 04:13:00,
2013-03-02 20:18:00,61.7,31.6,30.08,NE,50,7.0,7.0,32,0.00,,---,0.00,VWS V14.01,2013-03-03 04:18:00,
2013-03-02 20:23:00,61.7,31.6,30.07,NE,53,3.0,9.0,32,0.00,,---,0.00,VWS V14.01,2013-03-03 04:23:00,
2013-03-02 20:28:00,61.8,31.6,30.07,NE,46,4.0,9.0,32,0.00,,---,0.00,VWS V14.01,2013-03-03 04:28:00,
2013-03-02 20:33:00,61.8,30.9,30.08,NE,49,6.0,10.0,31,0.00,,---,0.00,VWS V14.01,2013-03-03 04:33:00,
2013-03-02 20:38:00,61.9,31.0,30.07,NE,47,6.0,10.0,31,0.00,,---,0.00,VWS V14.01,2013-03-03 04:38:00,
2013-03-02 20:44:00,61.9,31.0,30.08,NE,44,3.0,10.0,31,0.00,,---,0.00,VWS V14.01,2013-03-03 04:44:00,
2013-03-02 20:49:00,61.8,30.9,30.08,NE,51,4.0,10.0,31,0.00,,---,0.00,VWS V14.01,2013-03-03 04:49:00,
2013-03-02 20:54:00,61.7,30.8,30.08,NE,49,4.0,10.0,31,0.00,,---,0.00,VWS V14.01,2013-03-03 04:54:00,
2013-03-02 20:59:00,61.6,29.9,30.08,NE,47,5.0,10.0,30,0.00,,---,0.00,VWS V14.01,2013-03-03 04:59:00,
2013-03-02 21:00:00,61.6,30.7,30.08,NE,48,5.0,10.0,31,0.00,,---,0.00,VWS V14.01,2013-03-03 05:00:00,
2013-03-02 21:05:00,61.6,29.9,30.08,NE,46,5.0,10.0,30,0.00,,---,0.00,VWS V14.01,2013-03-03 05:05:00,
2013-03-02 21:10:00,61.6,29.9,30.08,NE,51,5.0,10.0,30,0.00,,---,0.00,VWS V14.01,2013-03-03 05:10:00,
2013-03-02 21:15:00,61.5,29.8,30.08,NE,52,4.0,10.0,30,0.00,,---,0.00,VWS V14.01,2013-03-03 05:15:00,
2013-03-02 21:20:00,61.3,29.6,30.08,NE,53,3.0,6.0,30,0.00,,---,0.00,VWS V14.01,2013-03-03 05:20:00,
2013-03-02 21:25:00,61.2,29.5,30.09,NE,53,3.0,7.0,30,0.00,,---,0.00,VWS V14.01,2013-03-03 05:25:00,
2013-03-02 21:30:00,61.1,29.5,30.08,NE,56,5.0,9.0,30,0.00,,---,0.00,VWS V14.01,2013-03-03 05:30:00,
2013-03-02 21:35:00,61.1,29.5,30.09,ENE,57,6.0,6.0,30,0.00,,---,0.00,VWS V14.01,2013-03-03 05:35:00,
2013-03-02 21:40:00,61.0,28.5,30.09,NE,53,3.0,7.0,29,0.00,,---,0.00,VWS V14.01,2013-03-03 05:40:00,
2013-03-02 21:45:00,61.0,28.5,30.09,ENE,57,4.0,7.0,29,0.00,,---,0.00,VWS V14.01,2013-03-03 05:45:00,
2013-03-02 21:50:00,60.9,28.5,30.09,NE,51,0.0,6.0,29,0.00,,---,0.00,VWS V14.01,2013-03-03 05:50:00,
2013-03-02 21:55:00,60.8,29.2,30.09,NE,51,2.0,6.0,30,0.00,,---,0.00,VWS V14.01,2013-03-03 05:55:00,
2013-03-02 22:00:00,60.5,28.9,30.08,NE,51,1.0,6.0,30,0.00,,---,0.00,VWS V14.01,2013-03-03 06:00:00,
2013-03-02 22:05:00,60.2,29.5,30.09,NE,54,3.0,6.0,31,0.00,,---,0.00,VWS V14.01,2013-03-03 06:05:00,
2013-03-02 22:10:00,59.8,28.3,30.09,NE,53,4.0,6.0,30,0.00,,---,0.00,VWS V14.01,2013-03-03 06:10:00,
2013-03-02 22:15:00,59.6,28.1,30.08,NE,54,2.0,6.0,30,0.00,,---,0.00,VWS V14.01,2013-03-03 06:15:00,
2013-03-02 22:20:00,59.3,27.9,30.08,NE,55,3.0,4.0,30,0.00,,---,0.00,VWS V14.01,2013-03-03 06:20:00,
2013-03-02 22:25:00,59.1,28.5,30.08,NE,56,5.0,5.0,31,0.00,,---,0.00,VWS V14.01,2013-03-03 06:25:00,
2013-03-02 22:30:00,59.0,27.6,30.08,NE,55,4.0,5.0,30,0.00,,---,0.00,VWS V14.01,2013-03-03 06:30:00,
2013-03-02 22:35:00,59.0,27.6,30.08,NE,56,3.0,4.0,30,0.00,,---,0.00,VWS V14.01,2013-03-03 06:35:00,
2013-03-02 22:40:00,59.0,27.6,30.08,NE,53,2.0,6.0,30,0.00,,---,0.00,VWS V14.01,2013-03-03 06:40:00,
2013-03-02 22:45:00,59.0,27.6,30.08,NE,51,0.0,6.0,30,0.00,,---,0.00,VWS V14.01,2013-03-03 06:45:00,
2013-03-02 22:50:00,58.9,27.5,30.08,NE,53,0.0,3.0,30,0.00,,---,0.00,VWS V14.01,2013-03-03 06:50:00,
2013-03-02 22:55:00,58.8,28.3,30.08,NE,53,0.0,3.0,31,0.00,,---,0.00,VWS V14.01,2013-03-03 06:55:00,
2013-03-02 23:00:00,58.6,30.3,30.08,NE,53,0.0,3.0,34,0.00,,---,0.00,VWS V14.01,2013-03-03 07:00:00,
2013-03-02 23:05:00,58.3,28.6,30.08,NE,52,0.0,2.0,32,0.00,,---,0.00,VWS V14.01,2013-03-03 07:05:00,
2013-03-02 23:10:00,58.1,27.6,30.08,NE,53,0.0,4.0,31,0.00,,---,0.00,VWS V14.01,2013-03-03 07:10:00,
2013-03-02 23:15:00,58.0,27.6,30.08,NE,53,2.0,4.0,31,0.00,,---,0.00,VWS V14.01,2013-03-03 07:15:00,
2013-03-02 23:20:00,58.0,27.6,30.08,NE,53,0.0,4.0,31,0.00,,---,0.00,VWS V14.01,2013-03-03 07:20:00,
2013-03-02 23:25:00,58.0,27.6,30.08,NE,53,3.0,4.0,31,0.00,,---,0.00,VWS V14.01,2013-03-03 07:25:00,
2013-03-02 23:30:00,58.1,27.6,30.08,NE,52,4.0,6.0,31,0.00,,---,0.00,VWS V14.01,2013-03-03 07:30:00,
2013-03-02 23:35:00,58.1,28.4,30.07,NE,53,3.0,6.0,32,0.00,,---,0.00,VWS V14.01,2013-03-03 07:35:00,
2013-03-02 23:40:00,58.1,27.6,30.07,NE,50,4.0,6.0,31,0.00,,---,0.00,VWS V14.01,2013-03-03 07:40:00,
2013-03-02 23:45:00,58.0,28.3,30.07,NE,51,0.0,6.0,32,0.00,,---,0.00,VWS V14.01,2013-03-03 07:45:00,
2013-03-02 23:50:00,58.0,28.3,30.07,NE,51,3.0,5.0,32,0.00,,---,0.00,VWS V14.01,2013-03-03 07:50:00,
2013-03-02 23:55:00,57.9,28.2,30.07,NE,52,1.0,5.0,32,0.00,,---,0.00,VWS V14.01,2013-03-03 07:55:00,